Time,TemperatureF,DewpointF,PressureIn,WindDirection,WindDirectionDegrees,WindSpeedMPH,WindSpeedGustMPH,Humidity,HourlyPrecipIn,Conditions,Clouds,dailyrainin,SoftwareType,DateUTC
2013-12-11 00:10:00,52.8,11.0,30.21,ENE,69,0.0,-999.0,19,-99.99,,,0.00,weatherlink.com 1.10,2013-12-11 08:10:00,
2013-12-11 00:25:00,52.8,13.0,30.21,ENE,69,0.0,-999.0,20,-99.99,,,0.00,weatherlink.com 1.10,2013-12-11 08:25:00,
2013-12-11 00:40:00,52.7,12.0,30.20,ENE,69,0.0,-999.0,20,-99.99,,,0.00,weatherlink.com 1.10,2013-12-11 08:40:00,
2013-12-11 00:55:00,52.7,12.0,30.20,ENE,68,0.0,-999.0,20,-99.99,,,0.00,weatherlink.com 1.10,2013-12-11 08:55:00,
2013-12-11 01:10:00,52.7,12.0,30.20,ENE,68,0.0,-999.0,20,-99.99,,,0.00,weatherlink.com 1.10,2013-12-11 09:10:00,
2013-12-11 01:25:00,52.8,13.0,30.20,ENE,69,0.0,-999.0,20,-99.99,,,0.00,weatherlink.com 1.10,2013-12-11 09:25:00,
2013-12-11 01:40:00,53.1,13.0,30.19,ENE,69,0.0,-999.0,20,-99.99,,,0.00,weatherlink.com 1.10,2013-12-11 09:40:00,
2013-12-11 01:55:00,53.7,13.0,30.20,ENE,69,0.0,-999.0,20,-99.99,,,0.00,weatherlink.com 1.10,2013-12-11 09:55:00,
2013-12-11 02:10:00,53.9,14.0,30.19,ENE,68,0.0,-999.0,20,-99.99,,,0.00,weatherlink.com 1.10,2013-12-11 10:10:00,
2013-12-11 02:25:00,54.1,14.0,30.19,ENE,68,0.0,-999.0,20,-99.99,,,0.00,weatherlink.com 1.10,2013-12-11 10:25:00,
2013-12-11 02:40:00,53.9,14.0,30.18,ENE,68,0.0,-999.0,20,-99.99,,,0.00,weatherlink.com 1.10,2013-12-11 10:40:00,
2013-12-11 02:55:00,53.7,13.0,30.19,ENE,69,0.0,-999.0,20,-99.99,,,0.00,weatherlink.com 1.10,2013-12-11 10:55:00,
2013-12-11 03:10:00,53.7,13.0,30.19,ENE,69,0.0,-999.0,20,-99.99,,,0.00,weatherlink.com 1.10,2013-12-11 11:10:00,
2013-12-11 03:25:00,53.6,13.0,30.19,ENE,69,0.0,-999.0,20,-99.99,,,0.00,weatherlink.com 1.10,2013-12-11 11:25:00,
2013-12-11 03:40:00,53.3,13.0,30.18,ENE,68,0.0,-999.0,20,-99.99,,,0.00,weatherlink.com 1.10,2013-12-11 11:40:00,
2013-12-11 03:55:00,53.2,13.0,30.18,ENE,68,0.0,-999.0,20,-99.99,,,0.00,weatherlink.com 1.10,2013-12-11 11:55:00,
2013-12-11 04:10:00,53.4,13.0,30.18,ENE,69,0.0,-999.0,20,-99.99,,,0.00,weatherlink.com 1.10,2013-12-11 12:10:00,
2013-12-11 04:25:00,53.9,14.0,30.18,ENE,69,0.0,-999.0,20,-99.99,,,0.00,weatherlink.com 1.10,2013-12-11 12:25:00,
2013-12-11 04:40:00,54.1,14.0,30.17,ENE,69,0.0,-999.0,20,-99.99,,,0.00,weatherlink.com 1.10,2013-12-11 12:40:00,
2013-12-11 04:55:00,54.4,13.0,30.17,ENE,68,0.0,-999.0,19,-99.99,,,0.00,weatherlink.com 1.10,2013-12-11 12:55:00,
2013-12-11 05:10:00,54.4,13.0,30.17,ENE,69,0.0,-999.0,19,-99.99,,,0.00,weatherlink.com 1.10,2013-12-11 13:10:00,
2013-12-11 05:25:00,54.5,13.0,30.18,ENE,69,0.0,-999.0,19,-99.99,,,0.00,weatherlink.com 1.10,2013-12-11 13:25:00,
2013-12-11 05:40:00,54.5,13.0,30.17,ENE,69,0.0,-999.0,19,-99.99,,,0.00,weatherlink.com 1.10,2013-12-11 13:40:00,
2013-12-11 05:55:00,54.8,13.0,30.18,ENE,69,0.0,-999.0,19,-99.99,,,0.00,weatherlink.com 1.10,2013-12-11 13:55:00,
2013-12-11 06:10:00,54.4,13.0,30.18,ENE,68,0.0,-999.0,19,-99.99,,,0.00,weatherlink.com 1.10,2013-12-11 14:10:00,
2013-12-11 06:25:00,54.7,13.0,30.18,ENE,66,0.0,-999.0,19,-99.99,,,0.00,weatherlink.com 1.10,2013-12-11 14:25:00,
2013-12-11 06:40:00,55.4,14.0,30.18,ENE,66,0.0,-999.0,19,-99.99,,,0.00,weatherlink.com 1.10,2013-12-11 14:40:00,
2013-12-11 06:55:00,55.6,14.0,30.19,ENE,66,0.0,-999.0,19,-99.99,,,0.00,weatherlink.com 1.10,2013-12-11 14:55:00,
2013-12-11 07:10:00,55.9,13.0,30.19,ENE,66,0.0,-999.0,18,-99.99,,,0.00,weatherlink.com 1.10,2013-12-11 15:10:00,
2013-12-11 07:25:00,56.7,13.0,30.19,ENE,65,0.0,-999.0,18,-99.99,,,0.00,weatherlink.com 1.10,2013-12-11 15:25:00,
2013-12-11 07:40:00,57.2,13.0,30.19,ENE,66,0.0,-999.0,17,-99.99,,,0.00,weatherlink.com 1.10,2013-12-11 15:40:00,
2013-12-11 07:55:00,57.6,14.0,30.20,ENE,65,0.0,-999.0,18,-99.99,,,0.00,weatherlink.com 1.10,2013-12-11 15:55:00,
2013-12-11 08:10:00,57.5,19.0,30.20,ENE,66,0.0,-999.0,22,-99.99,,,0.00,weatherlink.com 1.10,2013-12-11 16:10:00,
2013-12-11 08:25:00,57.8,21.0,30.20,ENE,66,0.0,-999.0,24,-99.99,,,0.00,weatherlink.com 1.10,2013-12-11 16:25:00,
2013-12-11 08:40:00,57.8,18.0,30.21,ENE,65,0.0,-999.0,21,-99.99,,,0.00,weatherlink.com 1.10,2013-12-11 16:40:00,
2013-12-11 08:55:00,60.3,15.0,30.21,ENE,69,0.0,-999.0,17,-99.99,,,0.00,weatherlink.com 1.10,2013-12-11 16:55:00,
2013-12-11 09:10:00,59.9,23.0,30.22,ENE,69,0.0,-999.0,24,-99.99,,,0.00,weatherlink.com 1.10,2013-12-11 17:10:00,
2013-12-11 09:25:00,60.0,23.0,30.23,ENE,70,0.0,-999.0,24,-99.99,,,0.00,weatherlink.com 1.10,2013-12-11 17:25:00,
2013-12-11 09:40:00,60.2,20.0,30.23,ENE,75,0.0,-999.0,21,-99.99,,,0.00,weatherlink.com 1.10,2013-12-11 17:40:00,
2013-12-11 09:55:00,60.1,20.0,30.23,ESE,122,0.0,-999.0,21,-99.99,,,0.00,weatherlink.com 1.10,2013-12-11 17:55:00,
2013-12-11 10:10:00,60.8,19.0,30.23,ESE,120,0.0,-999.0,20,-99.99,,,0.00,weatherlink.com 1.10,2013-12-11 18:10:00,
2013-12-11 10:25:00,61.3,21.0,30.23,ESE,116,0.0,-999.0,21,-99.99,,,0.00,weatherlink.com 1.10,2013-12-11 18:25:00,
2013-12-11 10:40:00,62.5,21.0,30.22,ESE,115,0.0,-999.0,20,-99.99,,,0.00,weatherlink.com 1.10,2013-12-11 18:40:00,
2013-12-11 10:55:00,61.8,21.0,30.22,ESE,117,0.0,-999.0,21,-99.99,,,0.00,weatherlink.com 1.10,2013-12-11 18:55:00,
2013-12-11 11:10:00,61.1,31.0,30.21,SW,229,0.0,-999.0,32,-99.99,,,0.00,weatherlink.com 1.10,2013-12-11 19:10:00,
2013-12-11 11:25:00,60.9,35.0,30.21,SW,230,0.0,-999.0,38,-99.99,,,0.00,weatherlink.com 1.10,2013-12-11 19:25:00,
2013-12-11 11:40:00,61.4,35.0,30.20,SW,223,0.0,-999.0,37,-99.99,,,0.00,weatherlink.com 1.10,2013-12-11 19:40:00,
2013-12-11 11:55:00,61.6,23.0,30.20,South,178,0.0,-999.0,23,-99.99,,,0.00,weatherlink.com 1.10,2013-12-11 19:55:00,
2013-12-11 12:10:00,61.9,32.0,30.20,South,180,0.0,-999.0,32,-99.99,,,0.00,weatherlink.com 1.10,2013-12-11 20:10:00,
2013-12-11 12:25:00,61.7,30.0,30.19,SSE,157,0.0,-999.0,30,-99.99,,,0.00,weatherlink.com 1.10,2013-12-11 20:25:00,
2013-12-11 12:40:00,60.5,35.0,30.19,SSE,164,0.0,-999.0,38,-99.99,,,0.00,weatherlink.com 1.10,2013-12-11 20:40:00,
2013-12-11 12:55:00,60.4,24.0,30.19,SSE,149,0.0,-999.0,25,-99.99,,,0.00,weatherlink.com 1.10,2013-12-11 20:55:00,
2013-12-11 13:10:00,60.2,34.0,30.19,SSE,150,0.0,-999.0,38,-99.99,,,0.00,weatherlink.com 1.10,2013-12-11 21:10:00,
2013-12-11 13:25:00,61.2,29.0,30.19,ENE,68,0.0,-999.0,29,-99.99,,,0.00,weatherlink.com 1.10,2013-12-11 21:25:00,
2013-12-11 13:40:00,60.2,29.0,30.18,ESE,107,0.0,-999.0,31,-99.99,,,0.00,weatherlink.com 1.10,2013-12-11 21:40:00,
2013-12-11 13:54:00,59.0,41.0,30.19,ESE,117,0.0,-999.0,51,-99.99,,,0.00,weatherlink.com 1.10,2013-12-11 21:54:00,
2013-12-11 14:10:00,58.2,41.0,30.18,SW,233,0.0,-999.0,53,-99.99,,,0.00,weatherlink.com 1.10,2013-12-11 22:10:00,
2013-12-11 14:25:00,59.0,39.0,30.18,SW,230,0.0,-999.0,47,-99.99,,,0.00,weatherlink.com 1.10,2013-12-11 22:25:00,
2013-12-11 14:40:00,59.0,36.0,30.18,WSW,246,0.0,-999.0,43,-99.99,,,0.00,weatherlink.com 1.10,2013-12-11 22:40:00,
2013-12-11 14:55:00,59.0,28.0,30.18,SSE,166,0.0,-999.0,31,-99.99,,,0.00,weatherlink.com 1.10,2013-12-11 22:55:00,
2013-12-11 15:10:00,59.5,29.0,30.18,SSW,205,0.0,-999.0,32,-99.99,,,0.00,weatherlink.com 1.10,2013-12-11 23:10:00,
2013-12-11 15:25:00,59.0,28.0,30.19,SSE,156,0.0,-999.0,31,-99.99,,,0.00,weatherlink.com 1.10,2013-12-11 23:25:00,
2013-12-11 15:40:00,59.0,27.0,30.19,SSE,150,0.0,-999.0,29,-99.99,,,0.00,weatherlink.com 1.10,2013-12-11 23:40:00,
2013-12-11 15:55:00,57.8,27.0,30.18,SSE,150,0.0,-999.0,31,-99.99,,,0.00,weatherlink.com 1.10,2013-12-11 23:55:00,
2013-12-11 16:10:00,57.7,25.0,30.19,SSE,150,0.0,-999.0,29,-99.99,,,0.00,weatherlink.com 1.10,2013-12-12 00:10:00,
2013-12-11 16:25:00,57.2,27.0,30.19,SSE,149,0.0,-999.0,31,-99.99,,,0.00,weatherlink.com 1.10,2013-12-12 00:25:00,
2013-12-11 16:40:00,55.9,21.0,30.19,SE,137,0.0,-999.0,26,-99.99,,,0.00,weatherlink.com 1.10,2013-12-12 00:40:00,
2013-12-11 16:55:00,54.3,20.0,30.19,ESE,120,0.0,-999.0,26,-99.99,,,0.00,weatherlink.com 1.10,2013-12-12 00:55:00,
2013-12-11 17:10:00,53.8,19.0,30.19,East,99,0.0,-999.0,26,-99.99,,,0.00,weatherlink.com 1.10,2013-12-12 01:10:00,
2013-12-11 17:25:00,53.9,18.0,30.19,East,97,0.0,-999.0,24,-99.99,,,0.00,weatherlink.com 1.10,2013-12-12 01:25:00,
2013-12-11 17:40:00,53.6,18.0,30.19,East,82,0.0,-999.0,25,-99.99,,,0.00,weatherlink.com 1.10,2013-12-12 01:40:00,
2013-12-11 17:55:00,53.7,18.0,30.19,ENE,74,0.0,-999.0,24,-99.99,,,0.00,weatherlink.com 1.10,2013-12-12 01:55:00,
2013-12-11 18:10:00,53.7,18.0,30.20,ENE,74,0.0,-999.0,24,-99.99,,,0.00,weatherlink.com 1.10,2013-12-12 02:10:00,
2013-12-11 18:25:00,54.3,17.0,30.20,ENE,74,0.0,-999.0,23,-99.99,,,0.00,weatherlink.com 1.10,2013-12-12 02:25:00,
2013-12-11 18:40:00,54.4,17.0,30.20,East,82,1.0,-999.0,23,-99.99,,,0.00,weatherlink.com 1.10,2013-12-12 02:40:00,
2013-12-11 18:55:00,54.0,18.0,30.20,ENE,58,0.0,-999.0,24,-99.99,,,0.00,weatherlink.com 1.10,2013-12-12 02:55:00,
2013-12-11 19:10:00,53.5,17.0,30.21,East,91,0.0,-999.0,24,-99.99,,,0.00,weatherlink.com 1.10,2013-12-12 03:10:00,
2013-12-11 19:25:00,53.5,17.0,30.21,East,91,0.0,-999.0,24,-99.99,,,0.00,weatherlink.com 1.10,2013-12-12 03:25:00,
2013-12-11 19:39:00,53.6,17.0,30.21,East,91,0.0,-999.0,24,-99.99,,,0.00,weatherlink.com 1.10,2013-12-12 03:39:00,
2013-12-11 19:58:00,53.7,18.0,30.21,East,83,0.0,-999.0,24,-99.99,,,0.00,weatherlink.com 1.10,2013-12-12 03:58:00,
2013-12-11 20:10:00,53.7,17.0,30.21,East,84,0.0,-999.0,23,-99.99,,,0.00,weatherlink.com 1.10,2013-12-12 04:10:00,
2013-12-11 20:25:00,53.6,16.0,30.21,East,83,0.0,-999.0,23,-99.99,,,0.00,weatherlink.com 1.10,2013-12-12 04:25:00,
2013-12-11 20:40:00,53.5,16.0,30.21,East,83,0.0,-999.0,23,-99.99,,,0.00,weatherlink.com 1.10,2013-12-12 04:40:00,
2013-12-11 20:55:00,52.8,18.0,30.21,East,84,0.0,-999.0,25,-99.99,,,0.00,weatherlink.com 1.10,2013-12-12 04:55:00,
2013-12-11 21:10:00,52.6,18.0,30.21,East,84,0.0,-999.0,25,-99.99,,,0.00,weatherlink.com 1.10,2013-12-12 05:10:00,
2013-12-11 21:25:00,52.6,17.0,30.21,East,84,0.0,-999.0,24,-99.99,,,0.00,weatherlink.com 1.10,2013-12-12 05:25:00,
2013-12-11 21:40:00,52.4,17.0,30.21,East,83,0.0,-999.0,25,-99.99,,,0.00,weatherlink.com 1.10,2013-12-12 05:40:00,
2013-12-11 21:55:00,52.5,17.0,30.21,East,83,0.0,-999.0,25,-99.99,,,0.00,weatherlink.com 1.10,2013-12-12 05:55:00,
2013-12-11 22:10:00,53.7,19.0,30.21,East,83,0.0,-999.0,26,-99.99,,,0.00,weatherlink.com 1.10,2013-12-12 06:10:00,
2013-12-11 22:25:00,55.1,19.0,30.21,ENE,77,0.0,-999.0,24,-99.99,,,0.00,weatherlink.com 1.10,2013-12-12 06:25:00,
2013-12-11 22:40:00,56.0,17.0,30.21,ENE,69,0.0,-999.0,22,-99.99,,,0.00,weatherlink.com 1.10,2013-12-12 06:40:00,
2013-12-11 22:55:00,56.1,16.0,30.21,East,88,0.0,-999.0,21,-99.99,,,0.00,weatherlink.com 1.10,2013-12-12 06:55:00,
2013-12-11 23:10:00,55.9,13.0,30.21,ENE,62,0.0,-999.0,18,-99.99,,,0.00,weatherlink.com 1.10,2013-12-12 07:10:00,
2013-12-11 23:25:00,56.2,13.0,30.21,ENE,69,0.0,-999.0,18,-99.99,,,0.00,weatherlink.com 1.10,2013-12-12 07:25:00,
2013-12-11 23:40:00,56.4,10.0,30.21,ENE,72,0.0,-999.0,16,-99.99,,,0.00,weatherlink.com 1.10,2013-12-12 07:40:00,
2013-12-11 23:55:00,56.6,11.0,30.21,ENE,65,0.0,-999.0,16,-99.99,,,0.00,weatherlink.com 1.10,2013-12-12 07:55:00,